Weather in Gavrilovka

Russia / Tambov Oblast     52°52′40″N   42°45′41″E
temp.,
°C
wind,
m/s
gust,
m/s
humid.,
%
clouds,
%
prec.,
mm/h
press.,
hPa
HPBL,
m
28 february, sun
sun2800:00−12nnw489596 0.0 1012241
03:00−14nw359661 0.0 101396
06:00−14nw359636 0.0 1014100
09:00−13nw379546 0.0 1015247
12:00−10nw369276 0.0 1015405
15:00−8nw369188 0.1 1016545
18:00−10nnw3395100 0.1 101752
21:00−12nnw339699 0.1 101945
1 march, mon
mon100:00−14n239646 0.0 102121
03:00−15nnw229625 0.0 102220
06:00−15nnw22960 0.0 102320
09:00−13nw12954 0.0 102544
12:00−10w229122 0.0 1025220
15:00−8wsw249448 0.0 1025250
18:00−8wsw479570 0.0 1023113
21:00−7wsw5139572 0.0 1022286
2 march, tue
tue200:00−3wsw71393100 0.1 1019488
03:00−3wsw71495100 0.6 1015491
06:00−2wsw81596100 0.8 1011581
09:000w81597100 1.3 1007773
12:000wnw71398100 1.1 1006704
15:000nw61196100 1.5 1006825
18:00−1wnw51292100 0.3 1006412
21:00−3wnw5129582 0.3 1008365
3 march, wed
wed300:00−3nw61294100 0.1 1008559
03:00−3nw5119497 0.2 1008601
06:00−4nw6129497 0.3 1009519
09:00−4nw7129295 0.4 1011686
12:00−4nw71188100 0.1 1013892
15:00−4nw71188100 0.2 10141043
18:00−6nw51288100 0.1 1015361
21:00−7nw5129175 0.1 1017330
4 march, thu
thu400:00−9wnw479625 0.0 1018132
03:00−9w369736 0.0 101990
06:00−9wsw479683 0.0 1018134
09:00−6wsw6119343 0.0 1018303
12:00−2wsw7138778 0.0 1015679
15:00−1wsw7138687 0.0 1013646
18:00−2sw71585100 0.0 1011550
21:00−2sw71785100 0.0 1010615